[Iaude] MPEC R88: 2023 RO2 [a=1.32,e=0.29,i=2.1,H=27.7]

mpec at marsden.cfa.harvard.edu mpec at marsden.cfa.harvard.edu
Sat Sep 9 18:51:50 EDT 2023


M.P.E.C. 2023-R88                             Issued 2023 September 9, 22:41 UT

     The Minor Planet Electronic Circulars contain information on unusual
         minor planets, routine data on comets and natural satellites,
         and occasional editorial announcements.  They are published
    on behalf of Division F of the International Astronomical Union by the
          Minor Planet Center, Smithsonian Astrophysical Observatory,
                          Cambridge, MA 02138, U.S.A.
			  
             Prepared using the Tamkin Foundation Computer Network

                              MPC at CFA.HARVARD.EDU
            URL https://www.minorplanetcenter.net/    ISSN 1523-6714

                                    2023 RO2                                    


Observations:
     K23R02O*1C2023 09 06.22179422 25 58.073+05 26 23.39         21.02GVER088G96
     K23R02O 1C2023 09 06.22740622 25 58.285+05 27 15.48         21.00GVER088G96
     K23R02O 1C2023 09 06.23302422 25 58.516+05 28 08.29         20.89GVER088G96
     K23R02O 1C2023 09 06.40401822 26 05.838+05 55 08.00         21.02GVER088G96
     K23R02O 1C2023 09 06.40458322 26 05.903+05 55 14.20         22.23GVER088G96
     K23R02O 1C2023 09 06.40571422 26 05.953+05 55 24.71         21.47GVER088G96
     K23R02O 1C2023 09 07.39324822 28 21.022+08 48 11.05         21.64GVER088G96
     K23R02O 1C2023 09 07.39500322 28 21.176+08 48 30.42         21.43GVER088G96
     K23R02O 1C2023 09 07.39588122 28 21.241+08 48 40.75         20.98GVER088G96
     K23R02O 1C2023 09 08.94406 22 33 07.84 +14 27 52.3          20.7 VXER088033
     K23R02O 1C2023 09 08.94515 22 33 07.95 +14 28 09.6          20.5 VXER088033
     K23R02O 1C2023 09 08.94625 22 33 08.11 +14 28 26.2          20.5 VXER088033
     K23R02O 1C2023 09 08.94734 22 33 08.25 +14 28 42.8          20.9 VXER088033
     K23R02O KC2023 09 09.88255422 36 57.06 +18 48 07.7          20.9 GVER088L01
     K23R02O KC2023 09 09.88466122 36 57.47 +18 48 46.6          21.0 GVER088L01
     K23R02O KC2023 09 09.88701522 36 57.89 +18 49 29.2          21.2 GVER088L01

Observer details:
033 Karl Schwarzschild Observatory, Tautenburg.  Observers S. Melnikov, C.
    Hoegner, F. Ludwig, M. Hartmann, B. Stecklum.  Measurer B. Stecklum.
    1.34-m f/3 Schmidt + CCD.
G96 Mt. Lemmon Survey.  Observer A. R. Gibbs.  Measurers E. J. Christensen, D.
    Fay, J. B. Fazekas, D. C. Fuls, A. R. Gibbs, A. D. Grauer, H. Groeller, J.
    K. Hogan, R. A. Kowalski, S. M. Larson, G. J. Leonard, D. Rankin, R. L.
    Seaman, A. Serrano, F. C. Shelly, K. W. Wierzchos.  1.5-m reflector + 10K
    CCD.
L01 Visnjan Observatory, Tican.  Observers K. Korlevic, I. Lyon.  Measurer K.
    Korlevic.  1.0-m f/2.9 reflector + CCD.

Orbital elements:
2023 RO2                                                 Earth MOID = 0.0158 AU
Epoch 2023 Sept. 13.0 TT = JDT 2460200.5                Veres                   
M 333.04415              (2000.0)            P               Q                  
n   0.64706098     Peri.   68.82308     +0.78834626     -0.61494326             
a   1.3238514      Node   329.11564     +0.54997598     +0.71812355             
e   0.2858632      Incl.    2.10346     +0.27574734     +0.32579648             
P   1.52           H   27.77          G   0.15           U   8                  
Residuals in seconds of arc
230906 G96  0.4+  0.1+    230907 G96  0.0   0.0     230908 033  0.0   0.2+
230906 G96  0.1+  0.5-    230907 G96  0.2+  0.4-    230909 L01  0.6-  0.1+
230906 G96  0.0   0.5-    230907 G96  0.2+  0.0     230909 L01  0.1+  0.3+
230906 G96  0.4-  0.6-    230908 033  0.2+  0.5-    230909 L01  0.3+  0.2-
230906 G96  0.1+  0.2+    230908 033  0.3-  0.2+
230906 G96  0.2-  0.1-    230908 033  0.1-  0.1+

Ephemeris:
2023 RO2                 a,e,i = 1.32, 0.29, 2                   q = 0.9454
Date    TT    R. A. (2000) Decl.     Delta      r    Elong.  Phase     V
2023 08 10    22 10 45.5 -14 39 50   0.1449  1.1555   167.0    11.4    24.6
...
2023 08 25    22 14 56.6 -09 46 04   0.08073 1.0917   178.7     1.2    22.7
...
2023 09 02    22 19 52.2 -02 35 06   0.05135 1.0600   172.1     7.5    22.0
...
2023 09 08    22 30 07.9 +10 51 51   0.03181 1.0379   161.2    18.3    21.3
2023 09 09    22 33 19.8 +14 44 52   0.02893 1.0343   157.9    21.5    21.2
2023 09 10    22 37 23.4 +19 26 19   0.02622 1.0308   154.0    25.4    21.1
...
2023 09 16    00 32 38.6 +69 35 53   0.01790 1.0109   106.7    72.3    21.6
...
2023 09 24    09 20 25.0 +51 54 16   0.03444 0.9877    62.0   116.2    25.0
...
2023 10 09    09 55 53.3 +32 21 01   0.08351 0.9567    57.4   118.4    27.0

M. P. C. Staff               (C) Copyright 2023 MPC           M.P.E.C. 2023-R88





More information about the Iaude mailing list